User: anonymous   Login
Location: Deer Lake
(49.1830°N, 57.4330°W)
Time: 00:48:55
(UTC-03:-30)
Language:

Cosmos 1707 - Orbit

View from above orbital plane
View from above orbital plane
View from above satellite
View from above satellite

Ground track
Ground track

The orbit data is extracted from the following two-line orbital elements,

1 16326U 85113A   14330.74142000  .00005860  00000-0  36336-3 0   685
2 16326 082.5210 043.4416 0009934 278.3256 081.6847 15.09530240576290
Epoch (UTC): 26 November 2014 17:47:38
Eccentricity: 0.0009934
inclination: 82.5210°
perigee height: 531 km
apogee height: 544 km
right ascension of ascending node: 43.4416°
argument of perigee: 278.3256°
revolutions per day: 15.09530240
mean anomaly at epoch: 81.6847°
orbit number at epoch: 57629

The dashed part of the orbit path shows where the satellite is in the earth's shadow,  

DLR